Location: Buisson
(44.2787°N, 4.9969°E)
Time: 00:52:48
(UTC+00:00)

Cosmos 1821 Rocket - Pass Details

Date: 18 April 2021
Orbit: 946 x 1004 km, 82.9° (Epoch: 07 May)

Event Time Altitude Azimuth Distance (km) Brightness Sun altitude
Rises 01:44:13 0° 355° (N) 3,696 7.7 -28.0°
Reaches altitude 10° 01:46:48 10° 359° (N) 2,752 7.0 -27.8°
Maximum altitude 01:53:02 58° 78° (ENE) 1,146 4.5 -27.1°
Enters shadow 01:56:23 28° 147° (SSE) 1,774 5.2 -26.7°
